Flag for Netherlands Weather past 2 weeks in Amsterdam, Netherlands

Now
64 °F

Sprinkles. Passing clouds.


Feels Like: 64 °F
Forecast: 63 / 74 °F
Wind: 5 mph from East

Location: Amsterdam Schiphol Airport

Current Time: Jul 25, 2014 at 6:00:45 AM

Latest Report: Jul 25, 2014 at 5:25 AM


Visibility: N/A

Pressure: 30.01 "Hg

Humidity: 78%

Dew point: 57 °F

Location of AmsterdamLocation

Historic Weather in Amsterdam — Graph

°F

Amsterdam temperature yesterday

Maximum temperature yesterday: 79 °F (at 2:25 PM)
Minimum temperature yesterday: 66 °F (at 4:25 AM)
Average temperature yesterday: 72 °F

Past Weeks' High & Low Weather Summary

 TemperatureHumidityPressure
High93 °F (Jul 19, 3:55 PM)100% (Jul 10, 4:25 AM)30.18 "Hg (Jul 10, 4:25 AM)
Low57 °F (Jul 15, 4:55 AM)30% (Jul 19, 3:55 PM)29.71 "Hg (Jul 13, 2:55 PM)
Average70 °F78%29.96 "Hg
* Reported Jul 10 4:25 AM — Jul 25 4:55 AM, Amsterdam, Weather by CustomWeather, © 2014

Note: Actual official high and low records may vary slightly from our data, if they occured in-between our weather recording intervals... More about our weather records

Advertising

Amsterdam weather history for previous 24 hours

 ConditionsComfort  
Time TempWeatherWind HumidityBarometerVisibility
4:55 AM
Jul 25
63 °FClear.5 mph83%30.01 "Hg10 mi
4:25 AM64 °FClear.3 mph73%30.01 "Hg10 mi
3:55 AM63 °FClear.7 mph77%30.01 "Hg10 mi
3:25 AM66 °FClear.8 mph68%30.01 "Hg10 mi
2:55 AM68 °FClear.10 mph69%30.01 "Hg10 mi
2:25 AM66 °FClear.8 mph73%30.01 "Hg10 mi
1:55 AM64 °FClear.7 mph78%30.01 "Hg10 mi
1:25 AM66 °FClear.8 mph73%30.01 "Hg10 mi
12:55 AM64 °FClear.8 mph78%30.01 "Hg10 mi
12:25 AM68 °FClear.9 mph69%30.01 "Hg10 mi
11:55 PM
Jul 24
70 °FClear.10 mph64%30.01 "Hg10 mi
11:25 PM72 °FClear.10 mph61%30.01 "Hg10 mi
10:55 PM72 °FClear.13 mph65%30.01 "Hg10 mi
10:25 PM72 °FPassing clouds.9 mph69%30.01 "HgN/A
9:55 PM72 °FSunny.10 mph65%30.01 "Hg10 mi
9:25 PM73 °FPassing clouds.12 mph61%29.98 "HgN/A
8:55 PM73 °FPassing clouds.15 mph57%29.98 "HgN/A
8:25 PM75 °FPassing clouds.15 mph50%29.98 "HgN/A
7:55 PM75 °FPassing clouds.15 mph57%29.98 "HgN/A
7:25 PM75 °FPassing clouds.10 mph57%29.98 "HgN/A
6:55 PM75 °FPassing clouds.16 mph57%29.98 "HgN/A
6:25 PM77 °FPassing clouds.15 mph51%29.98 "HgN/A
5:55 PM79 °FPassing clouds.13 mph51%29.98 "HgN/A
4:55 PM79 °FPassing clouds.15 mph48%30.01 "HgN/A
4:25 PM77 °FPassing clouds.14 mph51%30.01 "HgN/A
3:55 PM79 °FPassing clouds.16 mph51%30.01 "HgN/A
3:25 PM79 °FPassing clouds.15 mph51%30.01 "HgN/A
2:55 PM79 °FPassing clouds.16 mph54%30.01 "HgN/A
2:25 PM79 °FPassing clouds.15 mph58%30.01 "HgN/A
1:55 PM77 °FPassing clouds.16 mph57%30.01 "HgN/A
1:25 PM77 °FPassing clouds.16 mph57%30.01 "HgN/A
12:55 PM75 °FPassing clouds.18 mph57%30.04 "HgN/A
12:25 PM75 °FPassing clouds.18 mph57%30.04 "HgN/A
11:55 AM75 °FPassing clouds.17 mph57%30.04 "HgN/A
11:25 AM73 °FPassing clouds.17 mph61%30.04 "HgN/A
10:55 AM73 °FPassing clouds.15 mph61%30.04 "HgN/A
10:25 AM72 °FPassing clouds.15 mph61%30.04 "HgN/A
9:55 AM70 °FPassing clouds.14 mph64%30.04 "HgN/A
9:25 AM70 °FPassing clouds.15 mph69%30.04 "HgN/A
8:55 AM70 °FSunny.13 mph64%30.04 "Hg10 mi
8:25 AM70 °FPassing clouds.12 mph64%30.04 "HgN/A
7:55 AM68 °FPassing clouds.14 mph73%30.04 "HgN/A
7:25 AM68 °FPassing clouds.9 mph69%30.04 "HgN/A
6:55 AM66 °FSunny.10 mph73%30.04 "Hg10 mi
6:25 AM66 °FClear.10 mph73%30.04 "Hg10 mi
Weather by CustomWeather, © 2014

See weather overviewHow to use our weather pages